Location: Bucquoy
(50.1391°N, 2.7097°E)
Time: 07:46:30
(UTC+00:00)

Cosmos 2061 Rocket - Pass Details

Date: 06 May 2021
Orbit: 966 x 1012 km, 82.9° (Epoch: 21 June)

Event Time Altitude Azimuth Distance (km) Brightness Sun altitude
Rises 03:00:46 0° 347° (NNW) 3,691 7.5 -10.7°
Reaches altitude 10° 03:03:19 10° 344° (NNW) 2,745 6.7 -10.4°
Maximum altitude 03:09:27 57° 268° (W) 1,157 4.2 -9.7°
Drops below altitude 10° 03:15:36 10° 191° (S) 2,757 5.9 -8.9°
Sets 03:18:10 0° 188° (S) 3,709 6.6 -8.6°
